Regional Weather Roundup
Issued by NWS Goodland, KS

Home | Current Version | Previous Version | Graphics & Text | Print | Product List | Glossary On
Versions: 1 2 3 4 5 6 7 8 9 10 11 12 13 14 15 16 17 18 19 20 21 22 23 24 25 26 27 28 29 30 31 32 33 34 35 36 37 38 39 40 41 42 43 44 45 46 47 48 49 50
000
ASUS43 KGLD 040408
RWRGLD

GOODLAND FORECAST AREA HOURLY WEATHER ROUNDUP
NATIONAL WEATHER SERVICE GOODLAND KS
1000 PM MDT SUN MAY 03 2015

...OFFICIAL OBSERVATIONS...

CITY           SKY/WX    TMP DP  RH WIND       PRES   REMARKS
GOODLAND KS    CLOUDY    68  45  43 E18G24    29.97R
HILL CITY KS   TSTM      65  54  67 W14       29.90R
IMPERIAL NEB   CLOUDY    62  41  46 N14       29.98R
MCCOOK NEB     MOCLDY    67  44  43 NE22G29   29.90R
AKRON CO       CLOUDY    56  47  71 N6        30.03F
BURLINGTON CO  LGT RAIN  57  51  80 W17       30.05R
LIMON CO       CLOUDY    54  43  66 NE9       30.07R
$$

...UNOFFICIAL OBSERVATIONS...

CITY           SKY/WX    TMP DP  RH WIND       PRES   REMARKS
COLBY KS       MOCLDY    70  48  46 NE8       29.97R
GOVE KS          N/A     72  32  23 MISG        N/A
LENORA KS        N/A     70  32  24 MISG        N/A
NORTON KS      MOCLDY    68  45  42 N22G28    29.88R
SHARON SPRINGS   N/A     65  49  56 MISG        N/A
KIT CARSON CO    N/A     56  50  80 MISG        N/A
YUMA CO          N/A     62  43  49 NE9         N/A
$$



USA.gov is the U.S. government's official web portal to all federal, state and local government web resources and services.